Victoria, British Columbia

11:06 AM PDT on October 01, 2016 (GMT -0700)
Victoria International

Weather History for CYYJ - February, 2013

Change the Weather History Date:

Saturday, February 23, 2013

  Actual Average Record
Temperature  
Mean Temperature 41 °F -  
Max Temperature 50 °F 46 °F 55 °F (2005)
Min Temperature 32 °F 33 °F 26 °F (2011)
Degree Days  
Heating Degree Days 24    
Moisture  
Dew Point 32 °F    
Average Humidity 68    
Maximum Humidity 87    
Minimum Humidity 50    
Precipitation  
Precipitation 0.01 in - - ()
Sea Level Pressure  
Sea Level Pressure 30.12 in    
Wind  
Wind Speed 5 mph ()    
Max Wind Speed 12 mph    
Max Gust Speed -    
Averages and records for this station are not official NWS values.
T = Trace of Precipitation, MM = Missing Value Source: Averaged Metar Reports

Daily Weather History Graph

Daily Weather History Graph

Search for Another Location

Airport or City:

Trip Planner

Search our weather history database for the weather conditions in past years. The results will help you decide how hot, cold, wet, or windy it might be!

Date:

Astronomy

Feb. 23, 2013 Rise Set
Actual Time 7:06 AM PST 5:48 PM PST
Civil Twilight 6:34 AM PST 6:20 PM PST
Nautical Twilight 5:57 AM PST 6:56 PM PST
Astronomical Twilight 5:21 AM PST 7:33 PM PST
Moon 4:00 PM PST (2/23) 5:38 AM PST (2/23)
Length of Visible Light 11h 46m
Length of Day
10h 42m
Waxing Gibbous, 96% of the Moon is Illuminated
Feb 23
Waxing Gibbous
Feb 25
Full
Mar 4
Last Quarter
Mar 11
New
Mar 19
First Quarter

Hourly Weather History & Observations

Time (PST) Temp. Windchill Dew Point Humidity Pressure Visibility Wind Dir Wind Speed Gust Speed Precip Events Conditions
12:00 AM 39.2 °F 34.2 °F 30.2 °F 70% 29.84 in 30.0 mi SW 6.9 mph - N/A   Mostly Cloudy
1:00 AM 37.4 °F 32.8 °F 30.2 °F 75% 29.86 in 30.0 mi South 5.8 mph - N/A   Mostly Cloudy
1:46 AM 35.6 °F 29.9 °F - N/A% - 30.0 mi SSW 6.9 mph - N/A   Mostly Cloudy
2:00 AM 37.4 °F 34.9 °F 30.2 °F 75% 29.88 in 30.0 mi SW 3.5 mph - N/A   Mostly Cloudy
3:00 AM 37.4 °F - 30.2 °F 75% 29.89 in 30.0 mi SSW 2.3 mph - N/A   Mostly Cloudy
4:00 AM 33 °F - 29 °F 80% 29.91 in 28 mi WNW 6.9 mph - -   Partly Cloudy
4:00 AM 33.8 °F 27.7 °F 28.4 °F 81% 29.91 in 30.0 mi WNW 6.9 mph - N/A   Scattered Clouds
5:00 AM 37.4 °F 30.8 °F 33.8 °F 87% 29.95 in 30.0 mi WNW 9.2 mph - N/A   Mostly Cloudy
6:00 AM 35.6 °F 27.5 °F 32.0 °F 87% 29.98 in 30.0 mi West 11.5 mph - N/A   Mostly Cloudy
7:00 AM 41.0 °F 37.1 °F 32.0 °F 70% 30.02 in 30.0 mi NNW 5.8 mph - N/A   Mostly Cloudy
8:00 AM 41.0 °F 36.4 °F 32.0 °F 70% 30.06 in 30.0 mi WNW 6.9 mph - N/A   Mostly Cloudy
9:00 AM 41.0 °F - 33.8 °F 76% 30.10 in 30.0 mi Calm Calm - N/A   Scattered Clouds
10:00 AM 43 °F - 35 °F 65% 30.13 in 28 mi West 5.8 mph - -   Scattered Clouds
10:00 AM 42.8 °F 39.3 °F 35.6 °F 76% 30.13 in 30.0 mi West 5.8 mph - N/A   Scattered Clouds
11:00 AM 48.2 °F - 33.8 °F 58% 30.16 in 30.0 mi West 4.6 mph - N/A   Scattered Clouds
12:00 PM 50.0 °F - 32.0 °F 50% 30.17 in 30.0 mi SW 4.6 mph - N/A   Mostly Cloudy
1:00 PM 50.0 °F - 32.0 °F 50% 30.18 in 30.0 mi WSW 4.6 mph - N/A   Mostly Cloudy
2:00 PM 48.2 °F - 33.8 °F 58% 30.20 in 30.0 mi WNW 4.6 mph - N/A   Mostly Cloudy
2:33 PM 48.2 °F - - N/A% - 30.0 mi NNW 9.2 mph - N/A Rain Light Rain Showers
3:00 PM 46.4 °F 41.1 °F 35.6 °F 66% 30.23 in 30.0 mi NW 11.5 mph - N/A Rain Light Rain Showers
3:29 PM 48.2 °F - - N/A% - 30.0 mi ENE 8.1 mph - N/A   Mostly Cloudy
4:00 PM 46 °F - 36 °F 58% 30.23 in 28 mi NE 5.8 mph - - Rain Light Rain Showers
4:00 PM 46.4 °F 43.5 °F 35.6 °F 66% 30.23 in 30.0 mi NE 5.8 mph - N/A   Mostly Cloudy
5:00 PM 46.4 °F 45.2 °F 35.6 °F 66% 30.25 in 30.0 mi SE 3.5 mph - N/A   Mostly Cloudy
6:00 PM 44.6 °F 43.1 °F 30.2 °F 57% 30.27 in 30.0 mi WNW 3.5 mph - N/A   Mostly Cloudy
7:00 PM 41.0 °F - 32.0 °F 70% 30.29 in 30.0 mi WSW 2.3 mph - N/A   Mostly Cloudy
8:00 PM 41.0 °F 36.4 °F 32.0 °F 70% 30.30 in 30.0 mi WSW 6.9 mph - N/A   Mostly Cloudy
9:00 PM 41.0 °F 35.8 °F 32.0 °F 70% 30.31 in 30.0 mi WSW 8.1 mph - N/A   Mostly Cloudy
10:00 PM 42 °F - 30 °F 52% 30.32 in 28 mi West 3.5 mph - -   Scattered Clouds
10:00 PM 42.8 °F 41.1 °F 30.2 °F 61% 30.32 in 30.0 mi West 3.5 mph - N/A   Mostly Cloudy
11:00 PM 42.8 °F 37.0 °F 30.2 °F 61% 30.33 in 30.0 mi WSW 10.4 mph - N/A   Overcast